[[{"header":{"parameterUnit":"m.s-1","parameterCategory":1,"la1":30.2991,"la2":30.254,"lo1":-89.0895,"lo2":-89.0444,"dy":0.0017,"dx":0.0017,"nx":28,"ny":28,"refTime":"2023-10-23T09:00:00:Z","depth":0,"parameterNumber":2,"parameterNumberName":"U-component_of_WINDS"},"data":[0,0,0,0,0,0,0,0,0,0,0,0,0,0,0,0,0,0,0,0,0,0,0,0,0,0,0,0,0,0,0,0,0,0,0,0,0,0,0,0,0,0,0,0,0,0,0,0,0,0,0,0,0,0,0,0,0,0,-0.8006,-0.8006,0,-0.801,-0.801,-0.801,-0.7995,-0.7994,-0.7994,-0.7994,-0.7998,-0.7999,-0.7999,0,0,0,0,0,0,0,0,0,0,0,0,0,-0.7985,-0.7985,-0.8006,-0.8006,-0.8006,-0.801,-0.801,-0.801,-0.7995,-0.7994,-0.7994,-0.7993,-0.7998,-0.7999,-0.7999,0,0,0,0,0,0,0,0,0,0,0,0,0,-0.7992,-0.7986,-0.8006,-0.7999,-0.7998,-0.801,-0.801,-0.801,-0.7995,-0.7994,-0.7994,-0.7993,-0.7998,-0.7999,-0.7999,-0.8018,0,0,-0.8002,-0.8002,0,0,0,0,0,0,0,0,-0.7992,-0.7993,-0.8,-0.7999,-0.7999,-0.8001,-0.8004,-0.8013,-0.7995,-0.7996,-0.7994,-0.7993,-0.8,-0.8,-0.8003,-0.8018,-0.8018,-0.8002,-0.8002,-0.8003,-0.8003,0,0,0,0,0,0,0,-0.7991,-0.7993,-0.8007,-0.8,-0.7999,-0.7996,-0.7996,-0.8006,-0.8002,-0.7996,-0.7995,-0.7996,-0.7999,-0.8002,-0.8003,-0.8018,-0.8002,-0.8003,-0.8003,-0.8003,-0.8049,-0.805,0,0,0,0,0,0,-0.7992,-0.7992,-0.8007,-0.8007,-0.7993,-0.7996,-0.7997,-0.8001,-0.8002,-0.8001,-0.7996,-0.7995,-0.8001,-0.8002,-0.8003,-0.8024,-0.8003,-0.8003,-0.8004,-0.8048,-0.8049,-0.805,0,0,0,0,0,0,-0.7991,-0.7993,-0.8007,-0.8,-0.8001,-0.7998,-0.8002,-0.8001,-0.8004,-0.8002,-0.8001,-0.8,-0.8,-0.8002,-0.8014,-0.8024,-0.8004,-0.8005,-0.8047,-0.8048,-0.8049,-0.8068,0,0,0,0,0,0,-0.7991,-0.7993,-0.8,-0.8,-0.8001,-0.8018,-0.8003,-0.8002,-0.8005,-0.8004,-0.8005,-0.8004,-0.8,-0.8013,-0.8015,-0.8025,-0.8005,-0.8046,-0.8048,-0.8049,-0.8066,-0.8069,-0.8072,0,0,0,0,0,-0.799,-0.8005,-0.8,-0.8002,-0.801,-0.8019,-0.802,-0.8015,-0.8006,-0.8013,-0.8012,-0.8004,-0.8023,-0.8014,-0.8016,-0.8027,-0.8046,-0.8047,-0.8049,-0.8065,-0.8069,-0.8072,0,0,0,0,0,0,-0.8007,-0.8005,-0.8,-0.8015,-0.8017,-0.8016,-0.8025,-0.8019,-0.8023,-0.8022,-0.8015,-0.8015,-0.8029,-0.8029,-0.802,-0.8045,-0.8033,-0.8035,-0.8044,-0.8048,-0.805,-0.805,-0.8006,0,0,0,0,0,-0.8012,-0.8019,-0.8017,-0.8031,-0.8032,-0.8029,-0.8032,-0.8028,-0.803,-0.8031,-0.803,-0.8033,-0.8039,-0.8043,-0.8049,-0.8066,-0.8066,-0.8074,-0.8077,-0.8079,-0.8081,-0.809,-0.8094,-0.8055,-0.8055,-0.8055,0,0,-0.8023,-0.8023,-0.8028,-0.8035,-0.8036,-0.8043,-0.803,-0.8038,-0.8044,-0.8032,-0.8044,-0.8044,-0.8046,-0.8061,-0.8067,-0.8061,-0.8092,-0.8081,-0.8083,-0.8084,-0.8092,-0.8096,-0.8099,-0.8056,-0.8056,-0.8056,0,0,-0.8048,-0.8049,-0.806,-0.8062,-0.8063,-0.8061,-0.8064,-0.8064,-0.8063,-0.8075,-0.8066,-0.8073,-0.8084,-0.8085,-0.8088,-0.8113,-0.8106,-0.8115,-0.813,-0.8139,-0.8142,-0.8144,-0.8153,-0.8156,-0.8117,-0.8117,-0.8117,0,-0.8062,-0.8073,-0.8067,-0.8076,-0.8079,-0.8069,-0.808,-0.8082,-0.8086,-0.8088,-0.8081,-0.8095,-0.8096,-0.8111,-0.8117,-0.8119,-0.8122,-0.8115,-0.8142,-0.8144,-0.8147,-0.8155,-0.8158,-0.8118,-0.8118,-0.8118,-0.8118,0,-0.809,-0.8098,-0.8107,-0.8111,-0.8115,-0.8125,-0.8121,-0.8125,-0.8121,-0.8119,-0.8131,-0.8131,-0.8137,-0.814,-0.8135,-0.8154,-0.815,-0.8143,-0.8131,-0.8152,-0.8159,-0.8162,-0.812,-0.8119,-0.8119,-0.8119,0,0,-0.8125,-0.8125,-0.8129,-0.813,-0.8131,-0.8137,-0.8147,-0.8153,-0.8157,-0.816,-0.8168,-0.8177,-0.817,-0.8173,-0.8169,-0.8176,-0.8196,-0.8168,-0.8168,-0.8173,-0.8217,-0.8222,-0.8226,-0.8192,-0.8192,-0.8193,-0.8216,0,-0.8149,-0.8166,-0.8161,-0.8178,-0.8185,-0.8175,-0.8184,-0.8186,-0.8184,-0.819,-0.8188,-0.8195,-0.8185,-0.8187,-0.8194,-0.8192,-0.8205,-0.819,-0.8199,-0.8199,-0.8199,-0.823,-0.8236,-0.8259,-0.8219,-0.822,-0.822,0,-0.818,-0.8184,-0.8201,-0.8201,-0.8204,-0.8212,-0.8216,-0.8222,-0.8224,-0.8222,-0.8225,-0.8219,-0.8229,-0.8217,-0.823,-0.822,-0.8223,-0.8223,-0.8224,-0.8224,-0.8211,-0.8231,-0.8266,-0.8269,-0.8225,-0.8225,-0.8224,0,-0.8204,-0.8213,-0.8225,-0.8227,-0.8227,-0.8233,-0.8233,-0.8234,-0.8237,-0.8241,-0.8243,-0.8248,-0.8251,-0.8255,-0.8251,-0.8242,-0.8265,-0.8252,-0.8263,-0.8263,-0.8268,-0.8268,-0.8304,-0.8271,-0.8271,-0.8271,-0.8271,0,-0.8231,-0.8242,-0.8236,-0.8243,-0.8255,-0.8249,-0.8261,-0.8261,-0.8262,-0.8269,-0.826,-0.8267,-0.8261,-0.8267,-0.8264,-0.8275,-0.8276,-0.8275,-0.8274,-0.8276,-0.8276,-0.8278,-0.8276,-0.8272,-0.8271,-0.8271,-0.8271,0,-0.826,-0.8256,-0.8268,-0.8267,-0.8267,-0.8276,-0.8275,-0.8282,-0.828,-0.8289,-0.829,-0.8287,-0.8294,-0.829,-0.8297,-0.8294,-0.8309,-0.8306,-0.8308,-0.8308,-0.8319,-0.8318,-0.8357,-0.8361,-0.8326,-0.8326,-0.8326,0,-0.8278,-0.8286,-0.8286,-0.829,-0.8291,-0.8297,-0.8301,-0.8295,-0.8299,-0.8301,-0.8307,-0.8313,-0.8318,-0.8329,-0.8327,-0.8333,-0.8329,-0.8343,-0.833,-0.8332,-0.8329,-0.8329,-0.833,-0.8345,-0.8346,-0.8346,-0.8346,0,-0.8309,-0.8307,-0.8312,-0.8317,-0.8321,-0.8324,-0.8327,-0.8331,-0.8325,-0.833,-0.8336,-0.834,-0.8347,-0.8353,-0.8357,-0.8357,-0.8351,-0.835,-0.8353,-0.8355,-0.8356,-0.8355,-0.8315,-0.8349,-0.8349,-0.8349,-0.8349,-0.8348,-0.8333,-0.834,-0.8341,-0.8347,-0.8348,-0.8351,-0.8357,-0.8355,-0.8361,-0.8366,-0.8362,-0.837,-0.8371,-0.8376,-0.8378,-0.8384,-0.8378,-0.8383,-0.8384,-0.8385,-0.8386,-0.8355,-0.8385,-0.8384,-0.8384,-0.8384,-0.8384,0,-0.8364,-0.8364,-0.837,-0.8374,-0.8378,-0.8372,-0.8374,-0.8378,-0.8385,-0.8387,-0.8392,-0.8399,-0.8405,-0.8404,-0.8409,-0.8414,-0.8411,-0.8416,-0.8415,-0.8415,-0.8391,-0.8388,-0.8418,-0.8418,-0.8418,-0.8418,-0.8418,-0.8418,-0.8381,-0.8392,-0.839,-0.8402,-0.8401,-0.8409,-0.8411,-0.8413,-0.8415,-0.8424,-0.8428,-0.8427,-0.8428,-0.8433,-0.8438,-0.8437,-0.8439,-0.8445,-0.8443,-0.842,-0.8417,-0.8414,-0.8411,-0.8445,-0.8445,-0.8467,-0.8467,-0.8467]},{"header":{"parameterUnit":"m.s-1","parameterCategory":1,"la1":30.2991,"la2":30.254,"lo1":-89.0895,"lo2":-89.0444,"dy":0.0017,"dx":0.0017,"nx":28,"ny":28,"refTime":"2023-10-23T09:00:00:Z","depth":0,"parameterNumber":3,"parameterNumberName":"V-component_of_WINDS"},"data":[0,0,0,0,0,0,0,0,0,0,0,0,0,0,0,0,0,0,0,0,0,0,0,0,0,0,0,0,0,0,0,0,0,0,0,0,0,0,0,0,0,0,0,0,0,0,0,0,0,0,0,0,0,0,0,0,0,0,-1.1907,-1.1908,0,-1.1969,-1.197,-1.1971,-1.2001,-1.2001,-1.2001,-1.2001,-1.2062,-1.2064,-1.2065,0,0,0,0,0,0,0,0,0,0,0,0,0,-1.1812,-1.1813,-1.1907,-1.1908,-1.1909,-1.1969,-1.197,-1.1971,-1.2001,-1.2001,-1.2001,-1.2001,-1.2062,-1.2063,-1.2065,0,0,0,0,0,0,0,0,0,0,0,0,0,-1.1861,-1.1814,-1.1907,-1.1931,-1.1934,-1.1969,-1.197,-1.1971,-1.2001,-1.2001,-1.2001,-1.2001,-1.2061,-1.2063,-1.2066,-1.2081,0,0,-1.2073,-1.2074,0,0,0,0,0,0,0,0,-1.1859,-1.1865,-1.1927,-1.1929,-1.1933,-1.1977,-1.1959,-1.2008,-1.2001,-1.1975,-1.2001,-1.2001,-1.2034,-1.2038,-1.205,-1.2084,-1.2086,-1.2073,-1.2075,-1.2076,-1.2077,0,0,0,0,0,0,0,-1.1855,-1.1862,-1.1932,-1.1927,-1.1931,-1.1938,-1.1945,-1.1968,-1.2004,-1.1978,-1.198,-1.1987,-1.2035,-1.2048,-1.2052,-1.2087,-1.2073,-1.2076,-1.2077,-1.2078,-1.2136,-1.2137,0,0,0,0,0,0,-1.1848,-1.1859,-1.193,-1.1933,-1.1895,-1.194,-1.1947,-1.1963,-1.2004,-1.201,-1.1987,-1.1988,-1.2043,-1.2049,-1.2054,-1.2075,-1.2076,-1.2078,-1.208,-1.2136,-1.2136,-1.2137,0,0,0,0,0,0,-1.1846,-1.1854,-1.1927,-1.1897,-1.1907,-1.1941,-1.1958,-1.1964,-1.1977,-1.2011,-1.2017,-1.1993,-1.2044,-1.205,-1.2074,-1.2077,-1.2079,-1.2082,-1.2136,-1.2136,-1.2137,-1.2116,0,0,0,0,0,0,-1.1843,-1.1853,-1.186,-1.1897,-1.1908,-1.1947,-1.1959,-1.1965,-1.1981,-1.1983,-1.2018,-1.2024,-1.2044,-1.207,-1.2077,-1.2081,-1.2083,-1.2136,-1.2136,-1.2136,-1.2116,-1.2115,-1.2114,0,0,0,0,0,-1.184,-1.1851,-1.186,-1.1868,-1.1918,-1.1947,-1.1953,-1.1977,-1.1981,-1.1988,-1.201,-1.2023,-1.2076,-1.2073,-1.208,-1.2084,-1.2136,-1.2136,-1.2136,-1.2117,-1.2115,-1.2114,0,0,0,0,0,0,-1.1812,-1.1856,-1.1867,-1.1891,-1.1915,-1.1952,-1.1961,-1.1975,-1.1998,-1.1999,-1.2027,-1.2034,-1.2055,-1.2072,-1.2068,-1.2101,-1.2107,-1.2109,-1.209,-1.2089,-1.2087,-1.2083,-1.2085,0,0,0,0,0,-1.1809,-1.183,-1.1867,-1.1885,-1.1896,-1.1927,-1.194,-1.1957,-1.1983,-1.1993,-1.2016,-1.204,-1.2062,-1.2076,-1.2098,-1.2119,-1.2127,-1.2125,-1.2124,-1.2123,-1.2124,-1.2136,-1.2136,-1.2137,-1.2137,-1.2137,0,0,-1.1803,-1.183,-1.1841,-1.188,-1.1901,-1.1921,-1.1935,-1.1956,-1.1971,-1.1996,-1.202,-1.2038,-1.2066,-1.2088,-1.2099,-1.2103,-1.2126,-1.2123,-1.2122,-1.2124,-1.2136,-1.2136,-1.2136,-1.2137,-1.2137,-1.2137,0,0,-1.1802,-1.1824,-1.1842,-1.1862,-1.1894,-1.1914,-1.1918,-1.1953,-1.1966,-1.1991,-1.2009,-1.2027,-1.2065,-1.2084,-1.2099,-1.2105,-1.2118,-1.2112,-1.2106,-1.2117,-1.2117,-1.2117,-1.2119,-1.212,-1.2113,-1.2113,-1.2113,0,-1.179,-1.1823,-1.1848,-1.1869,-1.1885,-1.1909,-1.1926,-1.1944,-1.1981,-1.1991,-1.1995,-1.2043,-1.2063,-1.209,-1.2092,-1.2103,-1.2108,-1.2108,-1.2115,-1.2115,-1.2116,-1.2118,-1.2119,-1.2112,-1.2112,-1.2112,-1.2112,0,-1.1806,-1.1828,-1.1838,-1.1874,-1.1891,-1.191,-1.1938,-1.1952,-1.1967,-1.1986,-1.201,-1.2036,-1.2064,-1.2072,-1.2086,-1.21,-1.2102,-1.211,-1.2117,-1.2114,-1.2117,-1.2118,-1.211,-1.2111,-1.2111,-1.2111,0,0,-1.179,-1.184,-1.1843,-1.186,-1.1896,-1.1913,-1.1932,-1.1961,-1.1972,-1.1996,-1.2013,-1.2044,-1.2052,-1.2069,-1.2085,-1.2095,-1.2098,-1.2102,-1.2103,-1.2101,-1.2116,-1.211,-1.211,-1.2107,-1.2107,-1.2107,-1.2113,0,-1.1794,-1.1831,-1.1855,-1.1882,-1.1902,-1.1925,-1.1941,-1.1965,-1.1983,-1.2003,-1.2023,-1.2044,-1.2053,-1.2063,-1.2074,-1.2095,-1.2102,-1.2095,-1.2122,-1.2123,-1.2114,-1.2112,-1.2105,-1.211,-1.2115,-1.2115,-1.2115,0,-1.1804,-1.1829,-1.1858,-1.1892,-1.1902,-1.1916,-1.1944,-1.1962,-1.1989,-1.2002,-1.2021,-1.2038,-1.2058,-1.2062,-1.2091,-1.2086,-1.2098,-1.211,-1.2111,-1.2114,-1.2119,-1.2115,-1.2112,-1.2113,-1.2117,-1.2117,-1.2117,0,-1.179,-1.183,-1.1853,-1.1866,-1.1907,-1.1916,-1.1933,-1.1961,-1.1976,-1.1999,-1.201,-1.2035,-1.2049,-1.2067,-1.209,-1.2092,-1.2116,-1.2123,-1.2127,-1.2126,-1.2131,-1.2131,-1.213,-1.2139,-1.2139,-1.2139,-1.2139,0,-1.1792,-1.1809,-1.1847,-1.1861,-1.188,-1.1907,-1.1925,-1.1944,-1.1968,-1.1985,-1.2006,-1.2021,-1.2051,-1.207,-1.2087,-1.2108,-1.2114,-1.2124,-1.2129,-1.2123,-1.2122,-1.2131,-1.2132,-1.2139,-1.2139,-1.2139,-1.2139,0,-1.178,-1.1806,-1.1832,-1.1868,-1.1877,-1.189,-1.1921,-1.1935,-1.1954,-1.1976,-1.1983,-1.2013,-1.2036,-1.2061,-1.2093,-1.2105,-1.2124,-1.2131,-1.2116,-1.2118,-1.2121,-1.2121,-1.2127,-1.2129,-1.2136,-1.2136,-1.2136,0,-1.1779,-1.1793,-1.1831,-1.1845,-1.1861,-1.1883,-1.1899,-1.1925,-1.1941,-1.1972,-1.1982,-1.2008,-1.2029,-1.2066,-1.209,-1.2114,-1.2121,-1.2122,-1.2125,-1.2118,-1.2121,-1.212,-1.2122,-1.2121,-1.212,-1.212,-1.212,0,-1.1777,-1.1789,-1.1811,-1.1839,-1.1857,-1.1879,-1.1902,-1.1912,-1.1943,-1.1959,-1.1984,-1.2001,-1.2033,-1.2058,-1.2085,-1.2102,-1.2116,-1.2119,-1.2121,-1.2115,-1.2106,-1.2111,-1.2113,-1.2119,-1.2119,-1.2119,-1.2119,-1.2119,-1.177,-1.1784,-1.1812,-1.1837,-1.1857,-1.1878,-1.1893,-1.1915,-1.1936,-1.1965,-1.1979,-1.2004,-1.203,-1.2068,-1.2085,-1.2104,-1.2108,-1.2111,-1.2112,-1.2112,-1.2111,-1.2103,-1.2109,-1.2109,-1.2109,-1.2109,-1.2109,0,-1.1769,-1.1788,-1.181,-1.1842,-1.1861,-1.1874,-1.19,-1.1915,-1.1937,-1.196,-1.1981,-1.201,-1.2033,-1.206,-1.2085,-1.2095,-1.2102,-1.2101,-1.2101,-1.2104,-1.2106,-1.2101,-1.2095,-1.2095,-1.2095,-1.2095,-1.2095,-1.2095,-1.177,-1.1793,-1.1809,-1.1842,-1.1861,-1.1886,-1.19,-1.1919,-1.1938,-1.1969,-1.199,-1.2007,-1.2031,-1.2059,-1.2081,-1.2088,-1.2096,-1.2093,-1.2102,-1.2103,-1.2104,-1.2105,-1.2101,-1.2095,-1.2095,-1.2099,-1.2099,-1.2099]}]]